Satellite: FO-70
Catalog number: 37380
Epoch time:      12096.42909929
Element set:    0151
Inclination:      071.9718 deg
RA of node:       112.9699 deg
Eccentricity:    0.0015702
Arg of perigee:   094.0230 deg
Mean anomaly:     266.2840 deg
Mean motion:   14.76743898 rev/day
Decay rate:       5.00e-06 rev/day^2
Epoch rev:           02524
Checksum:              313

Satellite: ALMASAT-1
Catalog number: 38078
Epoch time:      12096.44814536
Element set:      95
Inclination:      069.4937 deg
RA of node:       121.7382 deg
Eccentricity:    0.0770265
Arg of perigee:   339.5148 deg
Mean anomaly:     017.6530 deg
Mean motion:   14.06415247 rev/day
Decay rate:     2.6337e-04 rev/day^2
Epoch rev:             731
Checksum:              312

Satellite: XATCOBEO
Catalog number: 38082
Epoch time:      12096.44725445
Element set:     142
Inclination:      069.4890 deg
RA of node:       121.3398 deg
Eccentricity:    0.0764015
Arg of perigee:   339.2779 deg
Mean anomaly:     017.8792 deg
Mean motion:   14.09720791 rev/day
Decay rate:     5.8593e-04 rev/day^2
Epoch rev:             731
Checksum:              329

/EX
SB KEPS @ AMSAT  $ORB12096.W
Orbital Elements  12096.WEATHER

HR AMSAT ORBITAL ELEMENTS FOR WEATHER SATELLITES
FROM WA5QGD FORT WORTH,TX April 5, 2012
Send SUBSCRIBE KEPS/UNSUBSCRIBE KEPS to majordomo at amsat.org only
BID: ORB12096.W
TO ALL RADIO AMATEURS BT

Satellite: NOAA-10
Catalog number: 16969
Epoch time:      12095.56571541
Element set:    0874
Inclination:      098.5883 deg
RA of node:       125.9055 deg
Eccentricity:    0.0013124
Arg of perigee:   090.2420 deg
Mean anomaly:     270.0275 deg
Mean motion:   14.27538475 rev/day
Decay rate:        1.8e-07 rev/day^2
Epoch rev:           32936
Checksum:              310

Satellite: NOAA-11
Catalog number: 19531
Epoch time:      12095.81569381
Element set:    0875
Inclination:      098.7324 deg
RA of node:       182.5137 deg
Eccentricity:    0.0011982
Arg of perigee:   074.1258 deg
Mean anomaly:     286.1233 deg
Mean motion:   14.14959003 rev/day
Decay rate:      -1.66e-06 rev/day^2
Epoch rev:           21413
Checksum:              303

Satellite: NOAA-12
Catalog number: 21263
Epoch time:      12095.97871731
Element set:    0381
Inclination:      098.7338 deg
RA of node:       117.9703 deg
Eccentricity:    0.0014716
Arg of perigee:   054.9869 deg
Mean anomaly:     305.2689 deg
Mean motion:   14.25486122 rev/day
Decay rate:        3.0e-07 rev/day^2
Epoch rev:           08612
Checksum:              314

Satellite: MET-3/5
Catalog number: 21655
Epoch time:      12096.59953500
Element set:     376
Inclination:      082.5596 deg
RA of node:       203.4564 deg
Eccentricity:    0.0014308
Arg of perigee:   140.3259 deg
Mean anomaly:     219.8889 deg
Mean motion:   13.17034610 rev/day
Decay rate:        5.1e-07 rev/day^2
Epoch rev:           99234
Checksum:              311

Satellite: MET-2/21
Catalog number: 22782
Epoch time:      12095.47074904
Element set:    0382
Inclination:      082.5442 deg
RA of node:       091.0021 deg
Eccentricity:    0.0022649
Arg of perigee:   003.6259 deg
Mean anomaly:     356.5068 deg
Mean motion:   13.83678499 rev/day
Decay rate:       1.20e-06 rev/day^2
Epoch rev:           93897
Checksum:              317

Satellite: OKEAN-4
Catalog number: 23317
Epoch time:      12095.92778717
Element set:    0896
Inclination:      082.5367 deg
RA of node:       099.6869 deg
Eccentricity:    0.0019877
Arg of perigee:   231.0753 deg
Mean anomaly:     128.8692 deg
Mean motion:   14.83665798 rev/day
Decay rate:      1.232e-05 rev/day^2
Epoch rev:           94394
Checksum:              378

Satellite: NOAA-14
Catalog number: 23455
Epoch time:      12095.94565361
Element set:    0857
Inclination:      098.8284 deg
RA of node:       180.3605 deg
Eccentricity:    0.0009371
Arg of perigee:   162.9084 deg
Mean anomaly:     197.2401 deg
Mean motion:   14.13886906 rev/day
Decay rate:        3.6e-07 rev/day^2
Epoch rev:           89044
Checksum:              327

Satellite: NOAA-15
Catalog number: 25338
Epoch time:      12095.68521178
Element set:    0213
Inclination:      098.6859 deg
RA of node:       083.3048 deg
Eccentricity:    0.0010118
Arg of perigee:   326.9067 deg
Mean anomaly:     033.1458 deg
Mean motion:   14.25048699 rev/day
Decay rate:       1.69e-06 rev/day^2
Epoch rev:           72238
Checksum:              323

Satellite: RESURS
Catalog number: 25394
Epoch time:      12095.98956506
Element set:    0069
Inclination:      098.3172 deg
RA of node:       088.0967 deg
Eccentricity:    0.0002353
Arg of perigee:   087.4682 deg
Mean anomaly:     272.6764 deg
Mean motion:   14.24280674 rev/day
Decay rate:        6.7e-07 rev/day^2
Epoch rev:           71398
Checksum:              342

Satellite: FENGYUN1
Catalog number: 25730
Epoch time:      12095.95553884
Element set:    0575
Inclination:      098.8430 deg
RA of node:       056.2345 deg
Eccentricity:    0.0017390
Arg of perigee:   214.7721 deg
Mean anomaly:     145.2312 deg
Mean motion:   14.09364883 rev/day
Decay rate:      1.153e-05 rev/day^2
Epoch rev:           66429
Checksum:              309

Satellite: OKEAN-0
Catalog number: 25860
Epoch time:      12095.95518921
Element set:    0610
Inclination:      097.9272 deg
RA of node:       060.1329 deg
Eccentricity:    0.0001739
Arg of perigee:   092.6674 deg
Mean anomaly:     267.4733 deg
Mean motion:   14.74139154 rev/day
Decay rate:       5.63e-06 rev/day^2
Epoch rev:           68378
Checksum:              323

Satellite: NOAA-16
Catalog number: 26536
Epoch time:      12095.80541095
Element set:    0697
Inclination:      099.1030 deg
RA of node:       136.7669 deg
Eccentricity:    0.0009792
Arg of perigee:   290.8196 deg
Mean anomaly:     069.1921 deg
Mean motion:   14.12721699 rev/day
Decay rate:       4.06e-06 rev/day^2
Epoch rev:           59467
Checksum:              343

Satellite: NOAA-17
Catalog number: 27453
Epoch time:      12095.82866294
Element set:    0659
Inclination:      098.3439 deg
RA of node:       126.5487 deg
Eccentricity:    0.0012008
Arg of perigee:   016.8908 deg
Mean anomaly:     343.2661 deg
Mean motion:   14.24412180 rev/day
Decay rate:       2.49e-06 rev/day^2
Epoch rev:           50831
Checksum:              317

Satellite: NOAA-18
Catalog number: 28654
Epoch time:      12095.91905419
Element set:    0135
Inclination:      099.0385 deg
RA of node:       053.4256 deg
Eccentricity:    0.0014474
Arg of perigee:   004.5081 deg
Mean anomaly:     355.6207 deg
Mean motion:   14.11629299 rev/day
Decay rate:       3.12e-06 rev/day^2
Epoch rev:           35422
Checksum:              299

Satellite: NOAA-19
Catalog number: 33591
Epoch time:      12095.83957690
Element set:    0326
Inclination:      098.8588 deg
RA of node:       036.5570 deg
Eccentricity:    0.0013311
Arg of perigee:   226.9910 deg
Mean anomaly:     133.0158 deg
Mean motion:   14.11314611 rev/day
Decay rate:       -1.5e-07 rev/day^2
Epoch rev:           16266
Checksum:              299

/EX
SB KEPS @ AMSAT  $ORB12096.M
Orbital Elements  12096.MISC

HR AMSAT ORBITAL ELEMENTS FOR MANNED AND MISCELLANEOUS SATELLITES
FROM WA5QGD FORT WORTH,TX April 5, 2012
Send SUBSCRIBE KEPS/UNSUBSCRIBE KEPS to majordomo at amsat.org only
BID: ORB12096.M
TO ALL RADIO AMATEURS BT

Satellite: HUBBLE
Catalog number: 20580
Epoch time:      12095.78878554
Element set:     975
Inclination:      028.4704 deg
RA of node:       263.8165 deg
Eccentricity:    0.0003588
Arg of perigee:   002.1668 deg
Mean anomaly:     357.8931 deg
Mean motion:   15.02341240 rev/day
Decay rate:      2.147e-05 rev/day^2
Epoch rev:             368
Checksum:              305

Satellite: ISS
Catalog number: 25544
Epoch time:      12096.99652534
Element set:     313
Inclination:      051.6394 deg
RA of node:       123.7868 deg
Eccentricity:    0.0008274
Arg of perigee:   250.1209 deg
Mean anomaly:     204.3274 deg
Mean motion:   15.58087733 rev/day
Decay rate:     1.6430e-04 rev/day^2
Epoch rev:           76676
Checksum:              313

Satellite: CO-58
Catalog number: 28895
Epoch time:      12095.64450110
Element set:    0141
Inclination:      097.9242 deg
RA of node:       325.1113 deg
Eccentricity:    0.0018233
Arg of perigee:   026.0735 deg
Mean anomaly:     334.1347 deg
Mean motion:   14.60546932 rev/day
Decay rate:       6.25e-06 rev/day^2
Epoch rev:           34292
Checksum:              286

Satellite: FALCON
Catalog number: 30776
Epoch time:      12095.93021944
Element set:    0333
Inclination:      035.4333 deg
RA of node:       004.1098 deg
Eccentricity:    0.0001241
Arg of perigee:   064.5562 deg
Mean anomaly:     295.5282 deg
Mean motion:   15.06998714 rev/day
Decay rate:      4.395e-05 rev/day^2
Epoch rev:           27919
Checksum:              300

Satellite: MAST
Catalog number: 31126
Epoch time:      12095.93940368
Element set:    0431
Inclination:      097.8770 deg
RA of node:       111.3197 deg
Eccentricity:    0.0093819
Arg of perigee:   339.7241 deg
Mean anomaly:     020.0253 deg
Mean motion:   14.54091903 rev/day
Decay rate:       7.29e-06 rev/day^2
Epoch rev:           26362
Checksum:              294

Satellite: CAPE1
Catalog number: 31130
Epoch time:      12095.50021847
Element set:    0436
Inclination:      097.8855 deg
RA of node:       107.3360 deg
Eccentricity:    0.0101256
Arg of perigee:   353.9049 deg
Mean anomaly:     006.0934 deg
Mean motion:   14.52846646 rev/day
Decay rate:       9.94e-06 rev/day^2
Epoch rev:           26307
Checksum:              293

